sat.trackr.live / text

‹ back to catalog

STARLINK-36811

NORAD 67808 · 2026-032M

PAYLOAD ACTIVE UNKNOWN

§ Identity

Operator
Country
US
Launch date
2026-02-15
Launch site
AFWTR
Launch vehicle
Mass (kg)
RCS (m²)

Purposes: comms

External: N2YO · Heavens-Above · Gunter

§ Orbital elements

Epoch: 2026-05-25T02:34:58.975392Z

Period
93.91 min
Inclination
97.2853°
Eccentricity
0.0001549
Mean motion
15.33452480 rev/d
Perigee alt
464.5 km
Apogee alt
466.6 km
Semi-major
6,843.7 km
B*
5.6622e-4
RAAN
333.2287°
Arg perigee
91.4925°
Mean anomaly
268.6495°
Rev number
1,667

§ Raw data

STARLINK-368111 67808U 26032M   26145.10762703  .00018253  00000+0  56622-3 0  99982 67808  97.2853 333.2287 0001549  91.4925 268.6495 15.33452480 16677

JSON: /api/v1/satellites/67808 · /tle

For live sub-satellite position, see the globe view (requires WebGL).

§ Visibility from observer

Set your observer location to see the next 7 days of passes ≥ 10°. The values pass through the URL so the page stays shareable.

No JS? Fill the form by hand. The geolocation button needs JavaScript.